Stations météo

Publicité
Cormeilles En Vexin, France (7053): Température de l'air & dewpoint: 26.10.2020 00:00:00 - 01.11.2020 00:00:00 (CET)Cormeilles En Vexin, France (7053): Température de l'air 5cm: 26.10.2020 00:00:00 - 01.11.2020 00:00:00 (CET)Cormeilles En Vexin, France (7053): Température de l'air -20cm: 26.10.2020 00:00:00 - 01.11.2020 00:00:00 (CET)Cormeilles En Vexin, France (7053): Vitesse du vent & gusts: 26.10.2020 00:00:00 - 01.11.2020 00:00:00 (CET)Cormeilles En Vexin, France (7053): Direction du vent: 26.10.2020 00:00:00 - 01.11.2020 00:00:00 (CET)Cormeilles En Vexin, France (7053): reduced air pressure: 26.10.2020 00:00:00 - 01.11.2020 00:00:00 (CET)Cormeilles En Vexin, France (7053): visibility: 26.10.2020 00:00:00 - 01.11.2020 00:00:00 (CET)Cormeilles En Vexin, France (7053): Quantités de précipitations: 26.10.2020 00:00:00 - 01.11.2020 00:00:00 (CET)
Date & Time tt [°C] td [°C] tt 5cm [°C] tt -20cm [°C] ff [km/h] ff [knt] fx [km/h] fx [knt] dd ppp [hPa] vv [km] rr [mm]
01.11.2020 00:00:00 11,4 10,0 10,4 13,0 7 4 10 5 SW 1017,0 35 0,0
31.10.2020 23:00:00 12,7 10,9 12,2 13,0 5 3 11 6 SW 1017,0 5 0,0
31.10.2020 22:00:00 13,2 10,9 12,8 13,0 8 4 21 11 WNW 1016,6 51 0,0
31.10.2020 21:00:00 14,2 12,2 13,6 12,9 11 6 32 17 W 1016,3 60 0,0
31.10.2020 20:00:00 15,1 14,1 14,5 12,9 21 12 42 23 WSW 1015,5 27 0,4
31.10.2020 19:00:00 15,5 13,5 14,7 12,8 23 12 38 20 SW 1015,2 14 0,0
31.10.2020 18:00:00 15,8 13,5 14,3 12,8 22 12 34 18 SSW 1015,0 10 0,8
31.10.2020 17:00:00 16,5 12,6 14,4 12,7 21 11 33 18 SW 1015,0 10 0,2
31.10.2020 16:00:00 16,9 11,6 15,7 12,7 23 12 39 21 SSW 1015,2 54 0,0
31.10.2020 15:00:00 15,9 11,3 15,6 12,5 14 8 39 21 S 1015,5 53 0,0
31.10.2020 14:00:00 15,9 10,4 16,2 12,4 26 14 47 26 SSW 1015,9 19 0,0
31.10.2020 13:00:00 16,8 11,3 16,5 12,3 23 12 39 21 SSW 1016,6 29 0,0
31.10.2020 12:00:00 16,3 10,4 16,6 12,3 19 11 29 16 SSW 1017,5 18 0,0
31.10.2020 11:00:00 14,4 9,8 14,4 12,3 18 10 29 15 S 1018,2 42 0,0
31.10.2020 10:00:00 13,8 9,8 12,4 12,4 13 7 21 11 S 1019,4 10 0,0
31.10.2020 09:00:00 12,0 9,7 10,1 12,4 9 5 17 9 SSE 1020,1 18 0,0
31.10.2020 08:00:00 11,0 8,9 10,4 12,5 12 6 18 10 SSE 1020,3 48 0,0
31.10.2020 07:00:00 11,3 8,9 10,0 12,5 12 6 19 10 S 1020,7 50 0,0
31.10.2020 06:00:00 11,5 9,1 10,7 12,5 12 7 19 10 SSE 1021,2 50 0,0
31.10.2020 05:00:00 12,6 9,2 11,8 12,5 11 6 17 9 SSE 1021,7 52 0,0
31.10.2020 04:00:00 13,0 9,4 12,5 12,6 6 3 14 8 S 1022,3 47 0,0
31.10.2020 03:00:00 13,3 9,7 12,3 12,6 10 5 16 8 S 1022,8 43 0,0
31.10.2020 02:00:00 13,0 10,0 12,1 12,6 3 2 7 4 SSW 1023,6 40 0,0
31.10.2020 01:00:00 13,2 10,2 12,5 12,6 4 2 11 6 SW 1023,7 36 0,0
31.10.2020 00:00:00 13,5 10,3 12,7 12,6 2 1 11 6 SW 1023,9 33 0,0
30.10.2020 23:00:00 13,7 10,3 12,6 12,6 9 5 13 7 S 1024,2 40 0,0
30.10.2020 22:00:00 13,5 9,7 12,9 12,6 5 3 11 6 S 1024,7 55 0,0
30.10.2020 21:00:00 13,8 9,4 13,5 12,6 9 5 18 10 SW 1024,5 60 0,0
30.10.2020 20:00:00 14,2 9,6 13,9 12,6 13 7 19 10 SW 1024,3 60 0,0
30.10.2020 19:00:00 14,4 10,6 14,1 12,5 16 9 23 13 SW 1024,3 60 0,0
30.10.2020 18:00:00 14,6 11,2 14,3 12,5 15 8 26 14 SW 1023,8 60 0,0
30.10.2020 17:00:00 15,1 11,1 15,0 12,4 16 8 25 14 SW 1023,5 60 0,0
30.10.2020 16:00:00 15,5 11,3 15,6 12,3 20 11 28 15 SW 1023,6 60 0,0
30.10.2020 15:00:00 15,7 11,7 15,3 12,3 13 7 23 12 SW 1023,6 60 0,0
30.10.2020 14:00:00 15,5 10,9 15,4 12,2 14 8 31 17 WSW 1023,5 56 0,0
30.10.2020 13:00:00 15,2 10,6 15,2 12,2 21 11 32 17 WSW 1023,6 44 0,0
30.10.2020 12:00:00 15,3 10,7 15,2 12,1 19 11 34 18 SW 1023,6 51 0,0
30.10.2020 11:00:00 14,8 11,2 14,2 12,1 22 12 32 17 SW 1023,1 45 0,0
30.10.2020 10:00:00 14,3 11,6 14,1 12,1 22 12 32 18 SW 1023,2 20 0,0
30.10.2020 09:00:00 13,8 11,5 12,7 12,1 18 10 32 17 SW 1022,8 10 0,0
30.10.2020 08:00:00 13,2 11,1 12,6 12,0 15 8 31 17 SW 1022,4 49 0,0
30.10.2020 07:00:00 13,5 11,2 13,1 12,0 15 8 28 15 SW 1022,0 43 0,0
30.10.2020 06:00:00 13,5 11,5 12,8 12,0 15 8 26 14 SW 1021,9 41 0,0
30.10.2020 05:00:00 13,1 11,7 12,4 12,0 16 9 22 12 SW 1021,9 40 0,0
30.10.2020 04:00:00 12,8 12,2 12,5 12,0 15 8 31 17 SW 1021,6 3,8 0,2
30.10.2020 03:00:00 13,5 11,5 13,2 11,9 21 11 34 18 SW 1021,4 49 0,0
30.10.2020 02:00:00 13,6 10,9 13,2 11,9 16 8 28 15 SW 1021,4 60 0,0
30.10.2020 01:00:00 13,5 11,4 12,9 11,9 17 9 26 14 WSW 1021,2 58 0,0
30.10.2020 00:00:00 13,6 11,3 13,2 11,9 18 10 29 16 SW 1021,0 55 0,0
29.10.2020 23:00:00 14,2 11,5 13,4 11,8 19 10 31 17 SW 1020,9 60 0,0
29.10.2020 22:00:00 14,0 11,7 13,4 11,8 16 9 27 15 SW 1020,7 57 0,0
29.10.2020 21:00:00 14,2 11,7 13,9 11,8 15 8 26 14 SW 1020,4 55 0,0
29.10.2020 20:00:00 14,2 11,9 13,6 11,7 17 9 34 18 WSW 1020,2 51 0,0
29.10.2020 19:00:00 14,0 11,5 13,6 11,6 16 9 28 15 SW 1019,9 60 0,0
29.10.2020 18:00:00 13,9 11,6 13,6 11,6 20 11 28 15 SW 1019,5 60 0,0
29.10.2020 17:00:00 14,1 11,4 14,0 11,5 18 10 37 20 SW 1019,5 49 0,0
29.10.2020 16:00:00 14,2 11,0 14,0 11,4 24 13 36 19 SW 1019,6 20 0,0
29.10.2020 15:00:00 13,8 10,4 13,5 11,4 18 10 34 19 SW 1019,9 37 0,0
29.10.2020 14:00:00 13,1 9,7 11,9 11,3 19 10 27 15 SW 1020,4 45 0,0
29.10.2020 13:00:00 13,1 9,5 13,0 11,3 16 9 35 19 WSW 1020,6 45 0,0
29.10.2020 12:00:00 13,0 10,0 13,0 11,2 18 10 34 19 WSW 1020,6 37 0,0
29.10.2020 11:00:00 12,2 9,2 11,6 11,3 15 8 24 13 WSW 1020,5 43 0,0
29.10.2020 10:00:00 11,3 8,9 10,7 11,3 17 9 27 15 WSW 1020,2 20 0,0
29.10.2020 09:00:00 10,7 8,6 10,0 11,2 13 7 24 13 SW 1019,6 42 0,0
29.10.2020 08:00:00 10,4 8,3 9,4 11,4 16 9 26 14 WSW 1019,1 45 0,0
29.10.2020 07:00:00 9,8 8,1 8,8 11,4 16 9 24 13 WSW 1018,1 45 0,0
29.10.2020 06:00:00 10,0 7,9 9,4 11,4 18 10 30 16 WSW 1017,4 46 0,0
29.10.2020 05:00:00 10,2 8,0 9,1 11,5 19 10 31 17 WSW 1016,5 50 0,0
29.10.2020 04:00:00 9,8 7,7 8,9 11,5 16 8 27 15 WSW 1015,9 56 0,0
29.10.2020 03:00:00 10,0 8,1 9,2 11,5 18 10 26 14 WSW 1015,4 60 0,0
29.10.2020 02:00:00 9,9 8,5 9,3 11,5 19 10 30 16 WSW 1014,6 60 0,2
29.10.2020 01:00:00 10,5 8,3 9,4 11,6 18 10 35 19 W 1014,6 10 0,8
29.10.2020 00:00:00 11,3 9,4 10,3 11,6 16 9 39 21 W 1013,7 7 0,8
28.10.2020 23:00:00 12,2 8,5 11,7 11,6 18 10 33 18 WSW 1013,0 43 0,0
28.10.2020 22:00:00 12,6 8,5 11,9 11,6 23 12 44 24 WSW 1012,3 50 0,0
28.10.2020 21:00:00 12,5 9,0 11,8 11,6 22 12 50 27 WSW 1011,4 10 0,0
28.10.2020 20:00:00 12,5 9,0 11,8 11,5 29 15 43 23 SW 1010,8 48 0,0
28.10.2020 19:00:00 12,4 9,2 10,9 11,5 24 13 42 23 SW 1010,4 50 0,2
28.10.2020 18:00:00 12,3 9,7 11,2 11,5 18 10 33 18 SW 1010,4 10 0,0
28.10.2020 17:00:00 11,9 9,6 10,9 11,4 16 9 53 29 SSW 1010,4 51 0,2
28.10.2020 16:00:00 13,4 8,9 12,3 11,4 26 14 44 24 SW 1010,3 18 0,0
28.10.2020 15:00:00 13,7 8,3 13,5 11,3 27 15 45 25 SW 1010,4 47 -
28.10.2020 14:00:00 13,8 9,2 13,5 11,3 24 13 45 25 SW 1010,7 31 0,0
28.10.2020 13:00:00 13,0 9,4 13,1 11,2 24 13 46 25 SW 1011,0 29 0,0
28.10.2020 12:00:00 12,8 8,9 12,7 11,2 32 17 49 26 SW 1011,3 20 0,0
28.10.2020 11:00:00 12,1 8,8 12,4 11,2 27 15 47 26 SW 1010,9 31 0,0
28.10.2020 10:00:00 12,4 9,0 11,2 11,2 30 16 44 24 SW 1010,7 19 0,0
28.10.2020 09:00:00 10,7 8,5 9,3 11,3 24 13 39 21 SW 1010,6 20 0,0
28.10.2020 08:00:00 9,4 7,7 8,4 11,3 22 12 37 20 SW 1010,0 20 0,0
28.10.2020 07:00:00 9,2 7,6 8,7 11,4 21 12 29 16 SW 1009,5 45 0,0
28.10.2020 06:00:00 9,6 8,5 8,9 11,4 16 9 27 15 SW 1008,9 40 0,0
28.10.2020 05:00:00 10,1 8,7 9,3 11,4 17 9 29 16 WSW 1008,0 43 0,0
28.10.2020 04:00:00 11,0 9,7 10,3 11,4 16 9 27 15 WSW 1007,8 44 0,0
28.10.2020 03:00:00 11,2 10,1 10,1 11,4 13 7 22 12 SW 1006,9 44 0,0
28.10.2020 02:00:00 11,3 10,0 10,5 11,4 15 8 27 15 SW 1006,8 20 0,0
28.10.2020 01:00:00 11,5 10,1 10,6 11,3 14 7 21 11 SW 1006,6 60 0,0
28.10.2020 00:00:00 11,3 10,0 10,9 11,3 14 7 21 12 SW 1005,8 60 0,0
27.10.2020 23:00:00 12,0 10,6 11,5 11,3 16 9 24 13 SW 1005,7 53 0,0
27.10.2020 22:00:00 12,2 11,3 10,8 11,2 16 9 23 13 SW 1005,0 48 0,0
27.10.2020 21:00:00 12,2 10,6 11,5 11,1 11 6 32 17 SW 1004,1 60 0,6
27.10.2020 20:00:00 12,9 12,0 11,9 11,1 25 14 45 24 SW 1003,1 3,4 0,8
27.10.2020 19:00:00 12,6 11,0 11,0 11,0 24 13 48 26 SSW 1002,5 57 0,0
27.10.2020 18:00:00 11,8 10,4 11,0 11,0 33 18 53 29 SSW 1002,3 20 0,2
27.10.2020 17:00:00 11,6 9,8 10,7 10,9 31 17 47 26 SSW 1002,7 60 0,0
27.10.2020 16:00:00 11,1 9,8 10,5 10,9 30 16 46 25 S 1003,3 20 0,4
27.10.2020 15:00:00 10,8 9,7 10,3 10,8 26 14 43 23 S 1003,9 6 0,8
27.10.2020 14:00:00 10,7 9,5 10,1 10,8 22 12 40 22 S 1004,9 3,9 0,6
27.10.2020 13:00:00 10,8 9,2 10,2 10,7 23 12 41 22 SSW 1006,1 12 0,0
27.10.2020 12:00:00 10,2 8,5 9,1 10,7 19 10 31 17 S 1007,0 20 0,2
27.10.2020 11:00:00 9,7 7,8 9,0 10,8 19 10 31 17 SSW 1007,6 12 0,2
27.10.2020 10:00:00 9,0 6,6 8,5 10,8 14 8 26 14 SSW 1007,6 20 0,0
27.10.2020 09:00:00 8,1 6,2 7,6 10,9 13 7 20 11 SSW 1007,8 20 0,0
27.10.2020 08:00:00 7,6 6,1 7,0 11,0 15 8 29 16 SW 1007,5 10 0,0
27.10.2020 07:00:00 7,4 6,0 6,7 11,0 13 7 23 13 SW 1007,5 20 0,0
27.10.2020 06:00:00 7,2 6,0 6,6 11,1 13 7 27 15 SW 1007,2 20 0,0
27.10.2020 05:00:00 7,2 6,0 6,3 11,2 18 10 27 15 SW 1006,6 33 0,0
27.10.2020 04:00:00 7,0 5,9 6,1 11,3 16 9 25 13 SW 1006,6 34 0,0
27.10.2020 03:00:00 7,1 6,0 6,0 11,4 13 7 21 12 WSW 1006,8 10 0,0
27.10.2020 02:00:00 7,1 5,9 6,3 11,5 14 8 21 11 SW 1007,0 60 0,0
27.10.2020 01:00:00 7,4 5,7 6,5 11,6 13 7 24 13 WSW 1006,9 60 0,0
27.10.2020 00:00:00 8,1 6,4 6,7 11,7 17 9 27 14 SW 1006,7 60 0,0
26.10.2020 23:00:00 7,7 6,2 6,5 11,7 14 7 21 12 WSW 1006,6 60 0,0
26.10.2020 22:00:00 7,9 5,9 6,9 11,8 12 6 21 11 WSW 1006,2 60 0,0
26.10.2020 21:00:00 8,9 6,5 7,7 11,8 16 9 22 12 WSW 1005,7 60 0,0
26.10.2020 20:00:00 9,7 6,6 8,8 11,9 16 9 29 16 SW 1005,3 59 0,0
26.10.2020 19:00:00 10,4 6,0 9,6 11,8 17 9 33 18 WSW 1005,1 60 0,0
26.10.2020 18:00:00 11,3 6,4 10,5 11,8 16 8 33 18 WSW 1004,6 60 0,0
26.10.2020 17:00:00 12,0 5,6 11,2 11,7 24 13 40 21 WSW 1004,0 10 0,0
26.10.2020 16:00:00 11,4 7,9 9,9 11,7 16 8 37 20 W 1004,1 41 0,2
26.10.2020 15:00:00 12,8 7,0 12,2 11,6 25 14 41 22 WSW 1003,7 55 0,0
26.10.2020 14:00:00 12,4 6,4 12,8 11,5 23 12 44 24 WSW 1003,8 39 0,0
26.10.2020 13:00:00 12,7 7,4 11,9 11,4 23 12 42 23 WSW 1004,0 22 0,0
26.10.2020 12:00:00 12,0 7,3 12,1 11,4 27 15 41 22 WSW 1004,4 23 0,0
26.10.2020 11:00:00 10,9 7,6 10,9 11,5 26 14 41 22 SW 1004,5 20 0,0
26.10.2020 10:00:00 9,6 6,9 8,6 11,6 22 12 33 18 SW 1004,6 36 0,0
26.10.2020 09:00:00 8,4 6,4 7,0 11,7 21 11 31 17 SW 1004,8 30 0,0
26.10.2020 08:00:00 7,1 5,6 6,2 11,8 16 9 28 15 SW 1004,2 34 0,0
26.10.2020 07:00:00 7,1 5,4 6,3 11,9 18 10 29 16 SW 1003,4 55 0,0
26.10.2020 06:00:00 7,0 5,5 6,3 12,0 16 9 28 15 SW 1002,6 56 0,0
26.10.2020 05:00:00 7,2 5,8 5,9 12,2 18 10 27 15 SW 1002,3 57 0,0
26.10.2020 04:00:00 6,8 5,7 6,2 12,3 13 7 21 12 SW 1002,4 46 0,0
26.10.2020 03:00:00 7,6 6,5 7,0 12,4 14 8 25 13 SW 1002,5 53 0,0
26.10.2020 02:00:00 7,8 6,9 7,2 12,4 17 9 28 15 SW 1002,1 49 0,0
26.10.2020 01:00:00 8,4 7,2 7,9 12,5 16 9 32 17 SW 1002,5 10 0,0
26.10.2020 00:00:00 8,9 7,3 8,4 12,6 19 11 32 18 SW 1002,9 60 0,0

tt = Température de l'air
td = dewpoint
tt 5cm = Température de l'air 5cm
tt -20cm = Température de l'air -20cm
ff = Vitesse du vent
fx = gusts
dd = Direction du vent
ppp = reduced air pressure
vv = visibility
rr = Quantités de précipitations

stations d'obs. à proximité